Weather History for Springfield, OH

Change the Weather History Date:

Sunday, December 30, 2012

  Actual Average (KDAY) Record (KDAY)
Temperature  
Mean Temperature 22 °F 28 °F  
Max Temperature 24 °F 35 °F 63 °F (1972)
Min Temperature 19 °F 21 °F -9 °F (1983)
Degree Days  
Heating Degree Days 44 37  
Month to date heating degree days 1011  
Since 1 July heating degree days 2122  
Cooling Degree Days 0 0  
Month to date cooling degree days 0  
Year to date cooling degree days 891  
Moisture  
Dew Point 15 °F    
Average Humidity 78    
Maximum Humidity 85    
Minimum Humidity 65    
Precipitation  
Precipitation 0.00 in 0.10 in 2.85 in (1990)
Month to date precipitation 3.02  
Year to date precipitation 40.95  
Snow  
Snow 0.00 in 0.20 in 5.40 in (1973)
Month to date snowfall 4.3  
Since 1 July snowfall 5.3  
Snow Depth -    
Sea Level Pressure  
Sea Level Pressure 30.38 in    
Wind  
Wind Speed 13 mph (WSW)    
Max Wind Speed 16 mph    
Max Gust Speed -    
Visibility 6 miles    
Events Snow    
T = Trace of Precipitation, MM = Missing Value Source: NWS Daily Summary

Daily Weather History Graph

Daily Weather History Graph

Search for Another Location

Airport:

Trip Planner

Search our weather history database for the weather conditions in past years. The results will help you decide how hot, cold, wet, or windy it might be!

Date:

Astronomy

Dec. 30, 2012 Rise Set
Actual Time 7:56 AM EST 5:19 PM EST
Civil Twilight 7:26 AM EST 5:50 PM EST
Nautical Twilight 6:52 AM EST 6:24 PM EST
Astronomical Twilight 6:19 AM EST 6:57 PM EST
Moon 7:49 PM EST (12/30) 9:05 AM EST (12/30)
Length of Visible Light 10h 24m
Length of Day
9h 23m
Waning Gibbous, 95% of the Moon is Illuminated
Dec 30
Waning Gibbous
Jan 4
Last Quarter
Jan 11
New
Jan 18
First Quarter
Jan 26
Full

Hourly Weather History & Observations

Time (EST) Temp. Windchill Dew Point Humidity Pressure Visibility Wind Dir Wind Speed Gust Speed Precip Events Conditions
12:56 AM 23.0 °F 9.6 °F 19.0 °F 85% 30.20 in 4.0 mi West 16.1 mph - 0.00 in Snow Light Snow
1:56 AM 23.0 °F 10.6 °F 18.1 °F 82% 30.23 in 6.0 mi West 13.8 mph - 0.00 in   Haze
2:56 AM 23.0 °F 10.1 °F 18.1 °F 82% 30.26 in 6.0 mi WNW 15.0 mph - N/A   Haze
3:56 AM 22.1 °F 8.9 °F 18.1 °F 85% 30.29 in 6.0 mi West 15.0 mph - N/A   Overcast
4:56 AM 21.0 °F 8.6 °F 17.1 °F 85% 30.32 in 6.0 mi West 12.7 mph - N/A   Overcast
5:56 AM 20.1 °F 7.5 °F 16.2 °F 85% 30.35 in 6.0 mi West 12.7 mph - N/A   Overcast
6:56 AM 20.1 °F 8.1 °F 16.2 °F 85% 30.38 in 6.0 mi West 11.5 mph - N/A   Overcast
7:56 AM 19.0 °F 6.1 °F 15.1 °F 85% 30.40 in 5.0 mi West 12.7 mph - N/A   Overcast
8:56 AM 19.0 °F 5.0 °F 14.0 °F 81% 30.42 in 4.0 mi West 15.0 mph - N/A   Haze
9:56 AM 20.1 °F 8.1 °F 14.0 °F 77% 30.43 in 5.0 mi West 11.5 mph - N/A   Haze
10:56 AM 20.1 °F 8.1 °F 14.0 °F 77% 30.45 in 5.0 mi WSW 11.5 mph - N/A   Haze
11:56 AM 20.1 °F 9.5 °F 14.0 °F 77% 30.45 in 5.0 mi WSW 9.2 mph - N/A   Haze
12:07 PM 19.4 °F 7.2 °F 14.0 °F 80% 30.40 in 5.0 mi WSW 11.5 mph - N/A   Haze
12:56 PM 22.1 °F 10.6 °F 14.0 °F 71% 30.43 in 5.0 mi WSW 11.5 mph - N/A   Haze
1:56 PM 23.0 °F 13.1 °F 14.0 °F 68% 30.42 in 5.0 mi WSW 9.2 mph - N/A   Haze
2:56 PM 24.1 °F 12.0 °F 14.0 °F 65% 30.42 in 6.0 mi WSW 13.8 mph - N/A   Haze
3:56 PM 23.0 °F 13.9 °F 14.0 °F 68% 30.41 in 5.0 mi WSW 8.1 mph - N/A   Haze
4:56 PM 23.0 °F 14.7 °F 13.1 °F 66% 30.40 in 5.0 mi SSW 6.9 mph - N/A   Haze
5:56 PM 21.0 °F 11.4 °F 12.0 °F 68% 30.40 in 7.0 mi SW 8.1 mph - N/A   Clear
6:56 PM 20.1 °F 13.6 °F 12.0 °F 71% 30.42 in 7.0 mi SSW 4.6 mph - N/A   Clear
7:56 PM 19.0 °F 10.0 °F 13.1 °F 78% 30.43 in 6.0 mi SSW 6.9 mph - N/A   Haze
8:56 PM 21.0 °F 11.4 °F 15.1 °F 78% 30.40 in 6.0 mi SSW 8.1 mph - N/A   Haze
9:56 PM 21.0 °F 9.9 °F 16.2 °F 81% 30.38 in 6.0 mi SSW 10.4 mph - N/A   Haze
10:56 PM 20.1 °F 9.5 °F 15.1 °F 81% 30.38 in 6.0 mi SW 9.2 mph - N/A   Haze
11:56 PM 21.0 °F 8.1 °F 16.2 °F 81% 30.37 in 6.0 mi SW 13.8 mph - N/A   Haze